• In Belarus
  • List of Countries
  • For 7 days
  • Water Temperature
  • Satellite Maps
  • Weather Map
  • Weather Widgets
  • user-avatar
    Login

    Hourly Weather Hudzhan

    Today, 25 June, Monday

    Time Temperature Precipitation Wind Pressure Humidity
    00:00 +26°C° 0 mm 2 mps 718 mmHg 31%
    01:00 +26°C° 0 mm 2 mps 718 mmHg 33%
    02:00 +25°C° 0 mm 2 mps 717 mmHg 34%
    03:00 +24°C° 0 mm 2 mps 717 mmHg 37%
    04:00 +24°C° 0 mm 2 mps 717 mmHg 40%
    05:00 +23°C° 0 mm 1 mps 717 mmHg 42%
    06:00 +25°C° 0 mm 1 mps 717 mmHg 40%
    07:00 +26°C° 0 mm 2 mps 718 mmHg 37%
    08:00 +28°C° 0 mm 2 mps 718 mmHg 34%
    09:00 +29°C° 0 mm 2 mps 718 mmHg 32%
    10:00 +30°C° 0 mm 3 mps 718 mmHg 29%
    11:00 +32°C° 0 mm 4 mps 718 mmHg 27%
    12:00 +33°C° 0 mm 4 mps 717 mmHg 27%
    13:00 +33°C° 0 mm 4 mps 717 mmHg 27%
    14:00 +34°C° 0 mm 5 mps 717 mmHg 27%
    15:00 +33°C° 0.1 mm 5 mps 717 mmHg 27%
    16:00 +33°C° 0.1 mm 5 mps 717 mmHg 28%
    17:00 +33°C° 0.1 mm 5 mps 717 mmHg 28%
    18:00 +32°C° 0.1 mm 4 mps 717 mmHg 32%
    19:00 +29°C° 0.1 mm 4 mps 717 mmHg 35%
    20:00 +28°C° 0.1 mm 3 mps 717 mmHg 38%
    21:00 +27°C° 0 mm 3 mps 717 mmHg 39%
    22:00 +27°C° 0 mm 2 mps 717 mmHg 39%
    23:00 +26°C° 0 mm 2 mps 717 mmHg 40%

    Tomorrow, 26 June, Tuesday

    Time Temperature Precipitation Wind Pressure Humidity
    00:00 +26°C° 0 mm 2 mps 717 mmHg 41%
    01:00 +25°C° 0 mm 2 mps 717 mmHg 42%
    02:00 +25°C° 0 mm 2 mps 717 mmHg 43%
    03:00 +24°C° 0 mm 2 mps 717 mmHg 44%
    04:00 +24°C° 0 mm 2 mps 717 mmHg 45%
    05:00 +23°C° 0 mm 1 mps 717 mmHg 45%
    06:00 +25°C° 0 mm 1 mps 717 mmHg 41%
    07:00 +27°C° 0 mm 1 mps 717 mmHg 37%
    08:00 +28°C° 0 mm 1 mps 718 mmHg 33%
    09:00 +29°C° 0 mm 2 mps 718 mmHg 32%
    10:00 +30°C° 0 mm 3 mps 718 mmHg 30%
    11:00 +31°C° 0 mm 3 mps 718 mmHg 28%
    12:00 +33°C° 0 mm 4 mps 717 mmHg 27%
    13:00 +33°C° 0 mm 4 mps 717 mmHg 26%
    14:00 +34°C° 0 mm 4 mps 717 mmHg 25%
    15:00 +34°C° 0.1 mm 4 mps 717 mmHg 25%
    16:00 +34°C° 0.1 mm 4 mps 717 mmHg 26%
    17:00 +34°C° 0.1 mm 4 mps 716 mmHg 26%
    18:00 +31°C° 0.1 mm 3 mps 716 mmHg 29%
    19:00 +30°C° 0.1 mm 3 mps 716 mmHg 33%
    20:00 +28°C° 0.1 mm 2 mps 716 mmHg 36%
    21:00 +28°C° 0 mm 1 mps 716 mmHg 38%
    22:00 +27°C° 0 mm 1 mps 716 mmHg 39%
    23:00 +26°C° 0 mm 1 mps 716 mmHg 41%

    Day after tomorrow, 27 June, Wednesday

    Time Temperature Precipitation Wind Pressure Humidity
    00:00 +26°C° 0 mm 1 mps 716 mmHg 42%
    01:00 +25°C° 0 mm 1 mps 716 mmHg 42%
    02:00 +25°C° 0 mm 1 mps 716 mmHg 43%
    03:00 +24°C° 0 mm 1 mps 716 mmHg 44%
    04:00 +24°C° 0 mm 1 mps 716 mmHg 45%
    05:00 +23°C° 0 mm 1 mps 716 mmHg 47%
    06:00 +25°C° 0 mm 1 mps 716 mmHg 42%
    07:00 +26°C° 0 mm 1 mps 716 mmHg 38%
    08:00 +28°C° 0 mm 1 mps 716 mmHg 34%
    09:00 +29°C° 0 mm 2 mps 716 mmHg 32%
    10:00 +30°C° 0 mm 2 mps 716 mmHg 30%
    11:00 +31°C° 0 mm 2 mps 716 mmHg 27%
    12:00 +32°C° 0.1 mm 2 mps 716 mmHg 27%
    13:00 +34°C° 0.1 mm 3 mps 716 mmHg 26%
    14:00 +35°C° 0.1 mm 3 mps 715 mmHg 25%
    15:00 +35°C° 0.3 mm 3 mps 715 mmHg 25%
    16:00 +35°C° 0.3 mm 3 mps 715 mmHg 25%
    17:00 +35°C° 0.3 mm 3 mps 715 mmHg 25%
    18:00 +33°C° 0.2 mm 3 mps 715 mmHg 28%
    19:00 +31°C° 0.2 mm 2 mps 715 mmHg 31%
    20:00 +30°C° 0.2 mm 2 mps 716 mmHg 34%
    21:00 +29°C° 0 mm 2 mps 716 mmHg 35%
    22:00 +28°C° 0 mm 1 mps 716 mmHg 36%
    23:00 +27°C° 0 mm 1 mps 716 mmHg 38%

    28 June, Thursday

    Time Temperature Precipitation Wind Pressure Humidity
    00:00 +27°C° 0 mm 1 mps 715 mmHg 38%
    01:00 +26°C° 0 mm 1 mps 715 mmHg 39%
    02:00 +26°C° 0 mm 1 mps 715 mmHg 39%
    03:00 +25°C° 0 mm 1 mps 715 mmHg 40%
    04:00 +25°C° 0 mm 1 mps 715 mmHg 41%
    05:00 +24°C° 0 mm 1 mps 716 mmHg 42%
    06:00 +26°C° 0 mm 1 mps 716 mmHg 38%
    07:00 +28°C° 0 mm 1 mps 716 mmHg 35%
    08:00 +29°C° 0 mm 1 mps 716 mmHg 31%
    09:00 +31°C° 0 mm 1 mps 716 mmHg 29%
    10:00 +32°C° 0 mm 2 mps 716 mmHg 27%
    11:00 +34°C° 0 mm 2 mps 716 mmHg 25%
    12:00 +35°C° 0 mm 3 mps 716 mmHg 24%
    13:00 +36°C° 0 mm 3 mps 715 mmHg 23%
    14:00 +36°C° 0 mm 3 mps 715 mmHg 22%
    15:00 +36°C° 0.1 mm 3 mps 715 mmHg 23%
    16:00 +36°C° 0.1 mm 3 mps 715 mmHg 23%
    17:00 +36°C° 0.1 mm 3 mps 715 mmHg 24%
    18:00 +35°C° 0.1 mm 3 mps 715 mmHg 27%
    19:00 +33°C° 0.1 mm 3 mps 716 mmHg 29%
    20:00 +31°C° 0.1 mm 2 mps 716 mmHg 32%
    21:00 +31°C° 0 mm 2 mps 716 mmHg 33%
    22:00 +30°C° 0 mm 2 mps 716 mmHg 34%
    23:00 +29°C° 0 mm 2 mps 716 mmHg 35%

    29 June, Friday

    Time Temperature Precipitation Wind Pressure Humidity
    00:00 +29°C° 0 mm 2 mps 716 mmHg 35%
    01:00 +28°C° 0 mm 2 mps 716 mmHg 35%
    02:00 +28°C° 0 mm 2 mps 716 mmHg 35%
    03:00 +27°C° 0 mm 2 mps 716 mmHg 36%
    04:00 +26°C° 0 mm 2 mps 716 mmHg 37%
    05:00 +26°C° 0 mm 2 mps 716 mmHg 38%
    06:00 +27°C° 0 mm 2 mps 716 mmHg 35%
    07:00 +28°C° 0 mm 2 mps 717 mmHg 32%
    08:00 +30°C° 0 mm 2 mps 717 mmHg 30%
    09:00 +31°C° 0 mm 2 mps 717 mmHg 29%
    10:00 +32°C° 0 mm 2 mps 717 mmHg 27%
    11:00 +34°C° 0 mm 2 mps 717 mmHg 26%
    12:00 +35°C° 0 mm 2 mps 716 mmHg 25%
    13:00 +35°C° 0 mm 3 mps 716 mmHg 24%
    14:00 +36°C° 0 mm 3 mps 716 mmHg 23%
    15:00 +36°C° 0 mm 3 mps 716 mmHg 23%
    16:00 +36°C° 0 mm 3 mps 716 mmHg 24%
    17:00 +36°C° 0 mm 3 mps 716 mmHg 24%
    18:00 +35°C° 0 mm 3 mps 716 mmHg 27%
    19:00 +32°C° 0 mm 2 mps 716 mmHg 30%
    20:00 +31°C° 0 mm 2 mps 716 mmHg 33%
    21:00 +30°C° 0 mm 2 mps 716 mmHg 34%
    22:00 +29°C° 0 mm 1 mps 716 mmHg 35%
    23:00 +29°C° 0 mm 1 mps 716 mmHg 36%

    30 June, Saturday

    Time Temperature Precipitation Wind Pressure Humidity
    00:00 +28°C° 0 mm 1 mps 716 mmHg 38%
    01:00 +28°C° 0 mm 1 mps 715 mmHg 39%
    02:00 +25°C° 0 mm 0 mps 715 mmHg 41%
    03:00 +24°C° 0 mm 0 mps 715 mmHg 41%
    04:00 +24°C° 0 mm 0 mps 715 mmHg 42%
    05:00 +23°C° 0 mm 0 mps 715 mmHg 43%
    06:00 +25°C° 0 mm 0 mps 716 mmHg 38%
    07:00 +29°C° 0 mm 1 mps 716 mmHg 33%
    08:00 +31°C° 0 mm 1 mps 716 mmHg 28%
    09:00 +32°C° 0 mm 1 mps 716 mmHg 26%
    10:00 +34°C° 0 mm 2 mps 716 mmHg 24%
    11:00 +36°C° 0 mm 2 mps 716 mmHg 22%
    12:00 +36°C° 0 mm 2 mps 716 mmHg 22%
    13:00 +37°C° 0 mm 2 mps 716 mmHg 21%
    14:00 +38°C° 0 mm 3 mps 715 mmHg 20%
    15:00 +38°C° 0 mm 3 mps 715 mmHg 21%
    16:00 +38°C° 0 mm 3 mps 715 mmHg 21%
    17:00 +38°C° 0 mm 3 mps 715 mmHg 21%
    18:00 +36°C° 0 mm 3 mps 715 mmHg 24%
    19:00 +35°C° 0 mm 3 mps 715 mmHg 28%
    20:00 +32°C° 0 mm 2 mps 715 mmHg 31%
    21:00 +31°C° 0 mm 2 mps 715 mmHg 32%
    22:00 +31°C° 0 mm 2 mps 715 mmHg 32%
    23:00 +30°C° 0 mm 2 mps 715 mmHg 33%
    Show more